RH
49 49 47 44 42 40 40 39 40 40 41 41 42 43 45 45 46 47 47 48 50 51 52 53 55 55 56 58 58 59 60 60 60 61 61 61 62 64 65 67 69 70 71 72 73 77 79 76 70 66 70 76 78 77 78 79 79 78 75 72 69 65 61 59 57 53 51 49 48 47 45 44 42 41 41 40 43 46 41 33 27 25 23 22 21
45 44 42 41 41 41 42 43 43 43 45 46 46 47 48 48 48 49 50 51 52 53 53 54 55 55 56 57 59 59 61 61 62 62 63 64 66 68 69 70 71 72 72 72 71 74 78 78 73 68 69 74 76 76 77 78 78 77 74 69 66 63 60 59 59 57 53 49 47 48 47 46 45 44 45 44 43 46 46 40 33 28 25 23 22
46 46 46 46 47 47 47 47 48 48 49 49 50 50 50 50 52 53 54 54 54 55 55 56 57 59 60 60 61 63 65 66 66 67 68 69 70 71 72 73 73 72 72 72 70 71 74 75 73 73 76 77 77 75 75 75 74 73 72 68 66 66 62 62 63 60 56 51 47 49 51 51 49 47 50 51 45 45 50 48 41 34 29 27 24
52 52 52 53 52 53 53 53 53 53 53 53 53 54 55 56 56 57 57 57 58 59 60 61 62 63 64 64 66 68 69 70 71 71 72 73 73 73 73 73 73 72 71 69 68 67 70 71 69 71 76 78 76 74 72 71 71 72 72 68 67 68 65 64 64 63 61 57 50 52 56 56 54 49 51 55 49 44 50 54 49 41 34 32 30
59 60 60 60 60 60 60 60 60 60 60 59 60 60 60 61 61 62 62 62 63 64 65 66 66 67 69 70 71 72 73 73 74 74 73 74 74 73 73 72 71 71 69 68 68 67 67 68 67 67 69 71 71 71 70 70 71 71 72 69 67 69 68 65 65 67 69 66 59 58 57 58 59 52 48 54 56 49 49 55 57 50 40 36 33
67 67 68 68 68 68 68 67 67 66 65 65 65 64 65 65 65 66 66 67 67 68 70 70 71 72 74 74 74 75 75 74 74 74 74 73 73 73 72 72 72 71 70 69 68 67 66 64 63 63 65 67 68 68 68 69 70 70 70 70 69 70 69 67 68 73 77 76 71 66 59 59 64 61 52 53 58 57 54 54 57 55 50 45 39
73 73 74 74 74 73 72 71 71 70 69 68 67 67 68 68 69 69 70 71 72 73 74 75 76 76 76 75 75 75 74 74 73 73 73 73 73 73 73 72 71 70 68 66 65 63 62 61 61 62 64 66 68 69 69 70 70 70 70 71 71 71 70 69 71 78 81 79 75 70 65 63 67 67 61 55 54 57 58 59 59 57 56 56 51
76 76 76 76 76 75 74 72 71 71 70 70 71 71 72 72 73 74 75 75 76 77 76 76 76 76 75 75 75 74 74 73 73 73 73 73 73 73 72 71 71 71 69 67 65 62 60 59 59 61 63 66 68 69 71 72 73 73 72 71 71 70 69 73 79 82 81 77 73 70 68 67 68 68 65 61 57 56 58 62 63 59 55 55 52
79 79 78 78 78 77 76 75 75 75 75 76 76 77 78 78 78 78 78 78 78 77 77 77 77 76 76 76 75 75 74 73 73 73 73 73 72 71 70 71 75 77 75 73 70 67 64 62 60 58 61 68 71 69 71 73 73 73 71 70 70 68 69 78 84 82 78 77 76 73 70 69 70 69 66 63 61 57 54 56 59 56 53 52 50
85 84 84 84 83 83 82 81 81 81 81 82 81 81 81 80 79 79 79 78 78 78 78 78 77 77 76 76 75 75 74 73 73 72 72 72 70 70 71 73 77 77 76 76 75 72 70 69 68 65 63 67 72 72 70 70 70 71 69 68 68 69 73 80 84 81 80 80 80 77 74 71 69 66 62 58 56 54 51 53 55 55 53 53 48
89 90 90 89 88 86 85 84 84 83 83 83 83 82 82 81 81 81 80 80 79 79 79 78 78 77 76 76 75 74 73 73 72 72 71 70 69 70 74 76 76 76 76 76 75 73 72 71 72 73 71 68 69 69 68 67 67 68 67 69 72 76 80 83 83 81 78 76 75 73 71 67 62 61 58 55 54 55 55 57 58 56 54 53 49
89 90 89 88 88 86 86 85 85 85 85 85 84 84 84 83 82 82 81 81 80 79 79 78 78 77 77 76 75 75 74 73 72 71 70 68 71 76 80 79 78 78 78 77 76 75 75 72 70 71 71 68 66 66 65 64 65 66 66 70 75 78 79 78 77 74 70 69 69 68 68 66 62 60 59 56 57 60 61 61 60 57 54 53 52
87 87 87 87 87 87 87 88 88 88 88 88 86 85 84 83 82 82 81 81 80 80 80 80 79 78 78 76 75 74 73 72 71 70 68 71 78 83 84 83 82 81 80 80 78 76 76 74 72 69 68 65 63 63 62 59 58 61 65 68 70 71 71 71 70 70 68 68 70 70 70 72 68 62 58 56 58 62 65 64 62 60 58 57 58
86 87 88 89 89 90 90 91 90 90 89 88 86 85 84 84 83 83 82 81 81 81 80 80 78 77 77 75 74 72 71 71 70 69 72 79 84 85 85 84 84 83 82 80 79 77 75 73 71 68 65 60 57 55 54 52 51 56 63 68 69 68 68 69 69 70 70 72 73 72 72 72 69 62 58 57 58 61 65 65 63 62 61 61 62
90 91 92 93 93 94 93 93 92 91 90 88 87 86 85 84 84 83 83 82 81 80 79 79 78 77 76 75 74 72 71 72 71 71 77 84 85 85 87 87 85 84 81 78 75 72 69 65 60 57 54 50 49 48 49 50 52 56 62 67 70 70 70 70 70 71 73 74 74 73 71 69 67 65 64 65 64 63 65 65 65 66 67 66 63
93 94 95 95 95 95 94 93 92 91 90 89 88 87 86 85 84 84 83 82 81 81 80 79 78 77 76 76 75 72 71 72 73 73 80 86 86 86 86 83 80 77 72 67 63 58 55 53 50 49 48 46 47 49 52 55 60 63 65 67 68 69 70 70 71 73 75 75 75 75 74 73 72 72 73 74 74 74 74 73 73 75 76 73 67
95 96 96 97 97 97 96 95 94 92 92 91 90 89 88 87 86 86 85 84 83 82 81 80 79 78 76 76 75 73 71 72 74 72 73 78 80 77 74 70 67 63 59 55 53 51 50 50 50 50 49 48 49 52 56 62 68 70 69 68 67 68 68 68 69 73 75 76 77 78 79 79 77 78 79 80 81 82 82 77 74 78 81 78 72
93 94 94 94 94 94 93 92 90 88 88 86 85 84 84 83 82 82 81 80 78 77 77 75 74 73 71 69 68 66 63 62 63 61 58 61 65 63 60 59 58 56 55 54 53 51 50 51 52 53 52 52 53 55 59 66 72 74 73 72 71 71 72 72 71 73 75 77 77 76 77 77 77 77 78 78 77 77 76 71 70 77 83 80 76
84 84 83 83 82 82 81 79 78 77 76 75 74 72 71 70 70 69 68 68 67 66 65 63 61 59 58 56 55 54 51 49 50 50 48 50 57 59 59 59 59 58 56 56 55 54 53 54 56 58 59 58 59 61 65 71 78 81 80 79 77 75 76 77 76 76 78 79 78 77 77 77 77 76 74 73 71 69 69 69 71 78 83 82 82
80 80 79 78 78 77 75 74 72 70 69 67 65 64 63 62 62 62 62 61 60 59 58 56 54 52 51 50 48 47 46 44 44 46 47 49 56 62 61 61 61 59 58 57 58 58 60 62 64 65 66 65 64 65 69 75 83 87 85 82 81 80 79 79 78 78 80 80 79 78 80 79 77 75 72 69 67 67 69 72 77 82 85 85 88
78 77 77 75 74 72 70 68 66 64 62 61 60 60 61 62 62 62 62 61 61 59 57 54 51 49 48 47 45 45 46 45 44 46 48 51 57 62 63 63 63 61 59 59 61 63 66 69 70 70 71 71 70 69 72 78 84 87 85 83 83 83 81 79 78 80 81 82 80 80 81 79 76 75 74 72 70 72 74 77 82 86 88 89 92
71 70 69 68 65 64 62 61 61 61 62 63 63 63 66 67 66 66 64 63 59 56 53 50 48 46 46 46 47 48 48 49 48 48 50 52 58 63 65 67 67 63 61 64 66 68 70 71 71 72 73 74 75 77 81 86 88 87 84 85 86 85 82 81 83 85 84 84 83 82 82 81 78 78 80 80 80 81 81 82 86 90 92 93 93
64 64 63 62 62 62 63 64 66 68 69 70 70 69 69 68 66 64 61 57 54 50 48 48 47 47 48 49 50 50 50 51 51 51 53 56 60 65 68 70 69 65 65 69 71 72 73 73 74 75 76 78 82 85 87 88 88 86 86 88 90 90 90 90 90 90 88 87 86 85 85 87 85 83 85 86 86 88 88 89 91 92 93 94 92
64 65 66 67 68 70 72 74 75 75 74 72 70 67 65 62 60 58 55 53 51 49 49 49 49 49 50 51 53 52 51 52 54 55 57 60 63 66 70 71 70 69 71 74 76 76 76 77 77 78 78 80 83 84 83 83 83 83 85 88 90 91 93 93 92 91 90 89 89 88 88 89 90 89 89 90 91 93 95 97 96 95 93 92 92
71 73 74 75 76 77 76 76 74 71 69 66 63 61 59 57 55 55 54 53 52 50 50 50 49 51 53 55 56 57 54 54 57 61 62 65 67 70 72 73 73 75 78 79 79 80 79 80 81 81 81 81 82 82 81 82 83 83 84 86 88 89 90 90 89 89 88 88 88 88 88 89 92 92 91 91 93 96 100 101 99 97 93 92 93
76 77 77 77 76 74 72 69 67 65 64 63 61 59 58 57 55 55 55 55 54 53 52 52 52 55 59 61 63 66 63 60 64 69 69 70 73 74 75 77 77 79 82 83 83 84 84 84 84 83 82 82 83 84 86 86 86 85 84 85 87 88 90 90 89 88 88 87 88 89 91 94 95 94 92 91 93 96 99 100 99 97 95 95 97
75 74 73 72 70 68 67 66 65 65 64 63 62 61 59 58 57 58 58 58 57 57 56 57 60 64 68 68 71 75 73 69 72 77 77 76 78 79 79 80 80 82 84 85 85 85 86 86 84 83 83 85 87 88 89 88 87 86 86 88 89 90 91 91 91 90 90 90 91 93 95 97 97 95 94 94 93 93 94 96 97 98 98 99 100
71 71 71 70 69 69 68 67 66 65 63 63 62 61 62 62 62 63 64 63 63 63 64 66 70 73 73 71 73 77 80 78 78 81 82 82 82 83 83 84 85 85 85 85 85 85 85 84 84 85 87 89 89 90 89 89 89 88 89 91 91 91 92 93 93 94 95 95 95 96 97 98 99 99 99 98 94 92 92 93 95 99 101 101 102
72 72 72 71 70 69 68 67 65 64 62 62 63 64 66 67 66 68 70 69 68 68 70 73 76 77 76 75 74 77 80 82 82 83 85 86 86 86 87 88 88 86 85 85 86 85 86 86 87 89 91 91 90 90 90 91 91 91 92 92 91 92 95 97 97 98 100 99 98 99 99 100 100 101 101 99 96 95 96 95 96 98 100 100 101
71 71 71 70 69 69 68 66 65 64 64 65 66 68 70 72 71 71 72 74 75 74 75 77 79 80 80 79 79 78 81 83 83 84 85 87 88 88 89 89 88 86 84 85 85 86 87 88 89 90 90 89 88 90 91 92 93 94 94 94 94 93 94 95 97 98 100 100 100 101 102 101 101 100 100 99 99 100 101 99 96 98 99 99 100
70 70 70 71 70 70 69 68 68 69 70 71 71 72 73 76 78 77 76 78 80 81 81 80 81 83 84 83 83 82 83 84 84 83 85 88 88 89 90 90 88 84 83 84 85 87 88 88 88 88 88 87 88 90 92 93 96 98 99 98 97 95 94 95 97 99 100 101 101 100 100 100 100 100 101 101 101 101 101 100 98 98 99 100 101
70 71 73 73 73 73 73 73 74 75 77 77 78 79 79 81 84 86 86 85 85 86 87 85 85 85 86 87 87 87 86 87 87 87 87 86 86 88 91 91 88 84 82 83 85 87 89 89 89 89 89 89 90 92 95 96 97 100 102 102 100 99 99 100 101 100 100 100 100 99 98 98 98 99 99 100 101 100 100 101 100 98 99 101 101
72 74 76 77 77 78 79 80 81 83 84 85 86 87 87 87 89 91 93 93 92 92 91 90 89 89 88 90 91 91 91 90 90 91 89 86 85 89 92 92 90 86 84 84 86 87 89 90 90 90 90 91 93 95 97 97 96 97 101 102 101 100 101 102 102 101 101 101 101 101 101 100 100 99 98 99 99 99 100 101 100 99 99 101 101
79 81 83 84 84 86 88 89 90 90 91 92 92 93 93 94 93 93 95 97 97 97 96 94 92 91 90 91 92 94 95 95 94 94 94 90 88 89 90 92 91 88 85 86 87 88 89 89 90 90 90 92 95 97 97 96 94 94 98 101 102 101 100 101 101 101 102 102 102 102 102 101 101 101 100 100 99 99 100 100 99 98 100 100 100
88 90 91 91 91 93 94 95 96 96 95 96 96 96 96 97 96 96 97 98 98 99 99 98 95 91 90 92 94 96 98 98 97 97 96 94 91 89 88 90 91 88 87 87 88 89 89 90 90 90 90 91 95 97 97 94 92 92 95 99 101 102 101 100 100 101 102 102 102 102 102 101 100 101 101 100 99 99 100 99 98 100 101 101 101
92 93 94 94 95 96 97 97 98 98 98 98 98 99 99 99 99 100 100 100 100 99 100 100 98 94 92 93 95 97 98 99 99 99 98 97 93 89 88 89 91 89 88 89 89 89 90 90 91 90 90 91 94 97 96 93 92 92 94 97 100 102 103 102 100 101 102 102 102 102 100 99 99 99 99 99 98 98 99 100 100 102 102 102 101
94 95 96 97 97 98 98 99 100 100 100 100 99 99 100 101 100 99 99 99 99 98 98 98 98 96 95 94 96 97 98 99 101 101 100 98 95 90 88 89 91 91 90 90 90 89 90 90 90 91 90 90 92 95 95 92 91 90 92 95 99 102 104 103 102 102 103 103 102 102 100 99 98 99 100 100 100 99 99 100 101 103 103 102 100
97 97 97 97 97 98 98 99 100 100 100 99 97 97 97 97 96 96 96 97 96 96 96 96 96 97 98 96 95 96 98 98 100 101 101 98 95 90 88 89 91 93 92 91 90 90 90 91 92 91 89 89 90 91 90 88 88 89 91 95 98 101 103 104 103 102 103 104 103 102 101 100 100 100 101 102 103 102 102 101 101 102 103 102 100
95 95 94 93 94 94 95 97 97 97 96 96 94 94 94 94 93 94 95 96 95 95 96 95 95 97 98 97 95 96 97 98 99 100 99 97 94 90 87 88 91 94 94 94 93 91 91 91 92 92 90 88 89 89 87 85 85 87 91 95 98 100 102 103 103 102 103 104 104 102 101 100 100 101 101 102 102 102 102 101 101 101 100 99 98
91 91 91 92 94 94 94 95 95 94 93 93 92 93 94 93 93 94 95 95 94 95 95 95 95 95 97 96 95 95 96 96 97 98 97 95 92 89 86 88 92 95 96 95 94 92 91 92 92 92 90 88 88 89 88 86 86 88 92 96 99 100 101 101 101 102 103 104 104 103 102 101 100 100 101 101 101 101 102 102 102 101 99 97 96
90 91 91 92 93 93 93 94 93 92 93 93 92 93 95 95 94 95 95 95 94 94 94 94 94 95 96 96 95 94 95 95 95 96 96 94 92 89 87 89 92 95 95 95 93 92 91 92 92 92 91 89 89 89 90 90 90 92 95 98 100 101 101 101 101 100 101 102 103 103 102 102 102 101 101 102 102 102 102 103 102 100 98 97 96
90 91 91 91 92 93 93 93 93 93 94 94 93 94 96 97 96 96 95 95 94 94 93 93 93 94 96 97 96 96 96 96 96 95 96 94 91 89 88 90 92 93 93 92 92 91 92 91 91 92 93 93 92 91 91 92 95 97 100 102 103 103 102 101 101 100 100 100 102 102 102 102 103 102 102 103 103 104 104 103 101 99 98 96 95
91 91 92 92 93 94 94 95 96 95 95 94 94 95 96 97 96 96 96 95 95 94 94 94 93 94 95 96 97 98 98 98 97 97 96 95 91 89 89 90 92 92 91 91 91 92 92 91 92 94 96 96 95 94 93 95 99 103 105 107 107 107 105 102 101 100 99 99 101 102 102 102 102 102 102 103 104 104 103 101 99 98 97 96 96
92 93 93 93 93 93 93 94 95 95 94 93 93 94 95 96 95 95 95 94 93 93 94 95 95 96 96 96 97 99 101 101 100 99 97 94 90 88 89 91 92 91 90 91 92 92 91 92 95 97 98 97 96 96 98 101 105 107 108 109 108 108 107 105 103 101 99 98 100 101 101 101 101 101 101 102 102 102 100 99 98 97 97 97 98
94 95 95 94 93 92 92 92 92 93 93 92 91 91 93 93 93 93 93 91 90 91 93 95 96 98 98 98 98 100 102 101 100 99 96 92 88 88 90 92 91 90 91 91 92 92 93 96 98 99 99 97 98 100 103 106 106 107 108 108 108 107 105 104 102 101 100 99 98 99 100 101 101 101 102 101 100 100 100 99 99 98 97 98 100
95 95 95 94 93 92 92 91 91 92 93 92 90 90 91 91 91 92 91 90 89 91 94 96 97 98 99 101 102 102 101 99 97 95 93 90 88 90 91 92 91 92 92 91 92 93 97 99 101 100 100 101 103 104 105 105 104 105 106 106 107 106 103 102 101 101 101 100 99 99 100 100 101 102 101 99 98 97 98 98 98 98 99 100 101
93 93 93 92 92 92 92 92 93 94 94 92 90 90 89 90 91 92 91 90 90 93 97 98 99 100 102 103 103 101 99 97 96 94 91 89 89 91 92 92 92 92 92 92 95 98 101 103 102 102 103 104 104 103 102 102 102 103 104 104 104 103 102 101 102 103 103 102 101 100 99 99 100 99 99 98 95 93 92 92 95 98 101 102 102
90 90 90 90 90 91 92 93 93 94 92 90 89 89 89 89 90 92 92 92 93 97 100 101 102 104 104 103 101 100 99 98 97 94 91 90 91 92 93 94 93 92 93 97 101 103 104 103 103 103 104 103 102 101 101 101 102 103 104 104 103 103 103 103 102 102 102 101 101 100 99 99 98 97 97 97 96 92 89 89 92 96 100 102 104
88 87 87 87 88 89 91 92 92 91 90 89 89 89 90 90 91 93 95 96 98 101 103 104 105 105 103 100 99 98 97 95 95 93 91 91 93 94 94 94 93 95 99 103 105 104 103 103 103 103 102 101 100 100 101 101 102 103 103 103 103 103 103 102 102 102 102 102 101 101 101 100 99 98 98 99 98 96 92 90 89 92 96 100 103
87 86 86 86 86 87 88 88 88 89 89 90 90 91 92 93 95 98 99 100 102 103 104 104 103 102 99 98 98 97 95 94 94 93 92 93 94 95 94 95 97 101 104 104 103 102 102 103 103 102 101 100 101 101 100 100 101 101 102 102 103 102 102 103 104 104 104 103 103 103 102 102 102 101 101 101 102 101 98 95 92 92 93 96 100
87 87 86 86 86 85 86 86 87 89 91 93 94 96 98 100 101 102 103 103 103 102 102 101 99 97 96 97 97 96 94 94 93 93 94 95 95 94 96 99 102 104 103 102 102 102 103 102 101 100 100 101 101 101 101 101 101 100 101 103 103 102 102 103 103 102 102 103 103 103 103 103 103 103 103 102 102 101 101 101 99 97 95 95 96